Location: Ebershardt
(48.6051°N, 8.6613°E)
Time: 22:16:35
(UTC+00:00)

Daily predictions for brighter satellites

Satellite Brightness Start Highest point End
(mag) Time Altitude Azimuth Time Altitude Azimuth Time Altitude Azimuth
Okean O Rocket 3.3 16:03:01 10° E 16:05:04 13° ENE 16:07:09 10° NNE
ISS -3.5 16:04:53 10° W 16:08:15 59° NNW 16:11:37 10° ENE
Cosmos 1464 Rocket 4.3 16:06:13 10° SSE 16:12:16 49° E 16:18:23 10° NNE
Cosmos 1461 3.2 16:09:32 10° SW 16:13:46 68° NW 16:17:51 10° NE
NOAA 6 4.2 16:09:17 10° SE 16:14:12 49° ENE 16:19:10 10° N
Cosmos 2084 4.5 16:14:42 10° NNW 16:18:22 28° NNE 16:22:10 10° E
Cosmos 1408 Rocket 3.8 16:14:55 10° N 16:19:05 44° ENE 16:23:15 10° SSE
Cosmos 1271 Rocket 2.7 16:16:16 10° S 16:20:10 76° E 16:24:09 10° NNE
NOSS 2-1 (E) 2.8 16:17:20 10° SW 16:20:35 76° SE 16:23:57 10° NE
CZ-4B R/B 2.9 16:18:45 10° SSE 16:22:56 88° E 16:26:56 10° NNW
Cosmos 1697 Rocket 3.5 16:18:10 10° NNW 16:23:03 29° NE 16:27:53 10° ESE
GEOS 3 Rocket 4.3 16:18:31 10° E 16:23:13 35° NE 16:27:52 10° NNW
Cosmos 1743 Rocket 4.4 16:19:36 10° N 16:23:21 28° ENE 16:27:05 10° SE
Cosmos 1980 Rocket 3.5 16:20:29 10° N 16:24:34 20° NE 16:28:37 10° E
Nadezhda 4 Rocket 4.1 16:20:37 10° N 16:26:48 54° ENE 16:32:58 10° SSE
Lacrosse 5 3.2 16:21:57 10° WNW 16:26:48 44° SW 16:31:36 10° SSE
deb Kosmos-1763 4.3 16:24:12 10° S 16:27:27 43° ESE 16:30:44 10° NE
SL-16 R/B 4.2 16:27:23 10° NNE 16:27:45 10° NNE 16:28:05 10° NNE
USA 267 3.4 16:21:52 10° NE 16:28:25 79° NNW 16:34:57 10° WSW
USA 305 2.9 16:25:22 10° WSW 16:29:36 78° NNW 16:33:22 13° ENE
Cosmos 1656 3.8 16:24:12 10° NNW 16:29:36 53° ENE 16:35:02 10° SE
CZ-4C R/B 4.3 16:27:09 10° N 16:31:03 47° WNW 16:34:43 10° SW
CZ-2C R/B 3.1 16:26:11 10° S 16:31:11 77° WSW 16:36:02 10° NNW
CZ-4B DEB 4.3 16:28:08 10° SE 16:33:32 57° ENE 16:38:55 10° N
Cosmos 1340 Rocket 3.2 16:32:11 10° N 16:36:03 41° ENE 16:39:55 10° SE
Cosmos 1891 Rocket 4.5 16:30:20 10° S 16:36:30 82° E 16:42:53 10° N
Cosmos 1092 Rocket 4.4 16:31:02 10° N 16:36:59 40° ENE 16:42:53 10° SE
USA 229 DEB 4.1 16:30:49 10° NW 16:37:51 53° NE 16:45:23 10° ESE
USA 229 4.1 16:30:54 10° NW 16:37:56 53° NE 16:45:27 10° ESE
Cosmos 990 Rocket 4.2 16:36:02 10° NNW 16:41:05 47° ENE 16:46:04 10° SE
AQUARIUS 4.1 16:37:52 10° SSE 16:42:19 71° ENE 16:46:49 10° N
Lacrosse 5 rocket 2.7 16:39:45 10° WNW 16:42:54 24° N 16:45:18 14° NE
ATLAS 2AS CENTAUR R/B 4.0 16:38:22 10° W 16:45:31 37° NNW 16:52:23 10° NE
Cosmos 1513 Rocket 4.5 16:39:27 10° S 16:45:33 90° E 16:51:47 10° N
USA 276 2.0 16:42:34 10° WNW 16:45:42 77° N 16:47:51 18° E
SL-16 R/B 4.5 16:43:26 10° NW 16:45:57 13° NNW 16:48:30 10° N
ATLAS CENTAUR R/B 3.8 16:37:42 10° SSW 16:47:31 40° SE 16:50:57 17° ENE
Cosmos 1933 4.3 16:45:23 10° SSE 16:48:48 27° E 16:51:18 15° NE
PAYLOAD B 4.3 16:43:38 10° SSE 16:49:08 60° ENE 16:54:40 10° N
SJ 16-02 2.3 16:45:38 10° NNW 16:49:53 51° WSW 16:54:07 10° S
Cosmos 1500 Rocket 3.6 16:49:31 10° N 16:53:57 59° ENE 16:58:19 10° SSE
Cosmos 2034 Rocket 3.9 16:49:32 10° S 16:55:39 70° E 17:01:47 10° NNE
CORIOLIS 4.3 16:54:37 10° SSE 17:00:01 81° WSW 17:05:29 10° NNW
NOSS 3-1 (A) 4.0 16:54:05 10° NW 17:01:24 71° NE 17:10:01 10° SE
USA 306 3.2 16:57:18 10° W 17:01:31 58° NNW 17:04:00 23° NE
CZ-2D R/B 3.1 16:57:42 10° SSE 17:01:31 69° ENE 17:05:21 10° N
NOSS 2-1 (C) 4.0 16:58:48 10° WSW 17:01:51 37° NW 17:04:09 16° NNE
USA 234 4.3 16:56:53 10° SSE 17:03:08 46° SW 17:09:23 10° WNW
Meteor 1-20 Rocket 4.2 16:58:18 10° N 17:04:07 68° ENE 17:09:56 10° SSE
NOSS 3-1 (C) 4.2 16:57:09 10° NW 17:04:33 82° SW 17:13:17 10° SE
Cosmos 1805 Rocket 3.8 17:00:36 10° N 17:04:47 45° ENE 17:08:56 10° SSE
Cosmos 1842 Rocket 3.7 17:02:57 10° SSW 17:07:23 78° W 17:11:54 10° N
Cosmos 1833 Rocket 3.2 17:03:42 10° S 17:08:51 39° ESE 17:11:51 22° NE
Cosmos 2360 4.3 17:04:14 10° NNW 17:09:52 53° NE 17:15:27 10° SE
NOSS 2-1 (D) 4.3 17:08:16 10° WSW 17:11:12 31° NW 17:13:12 17° NNE
PSLV R/B 3.8 17:09:47 10° S 17:13:27 73° WSW 17:17:10 10° NNW
NOSS 2-2 (E) 4.5 17:08:46 10° NNW 17:13:34 47° NE 17:18:12 18° ESE
CZ-4B R/B 3.1 17:08:25 10° SSE 17:13:49 66° ENE 17:19:10 10° N
Sich 1 3.2 17:11:51 10° N 17:16:00 46° ENE 17:20:08 10° SSE
Cosmos 1939 Rocket 4.4 17:13:17 10° SSW 17:17:10 39° W 17:21:04 10° NNW
SMAP 4.2 17:13:26 10° S 17:17:54 47° W 17:22:25 10° NNW
USA 307 3.3 17:13:48 10° W 17:18:01 53° NNW 17:19:51 30° NE
ARGOS 3.2 17:12:49 10° SSE 17:18:07 57° ENE 17:23:26 10° N
ERBS 2.5 17:15:22 10° WSW 17:18:32 57° NNW 17:19:27 38° NNE
H-2A R/B 2.0 17:14:31 10° SSE 17:19:47 90° WNW 17:24:55 10° NNW
Cosmos 1898 Rocket 3.4 17:14:33 10° NNW 17:19:51 72° ENE 17:25:04 10° SSE
Cosmos 1606 4.2 17:16:24 10° SW 17:19:53 36° WNW 17:23:25 10° N
MOS 1-B Rocket 3.9 17:15:06 10° NNE 17:20:49 66° ESE 17:27:06 10° S
Cosmos 1634 Rocket 4.1 17:15:07 10° SSE 17:21:13 54° E 17:27:22 10° NNE
SL-24 R/B - RUBIN 2 4.2 17:18:21 10° NNW 17:22:38 34° NE 17:23:12 33° NE
COSMOS 2455 3.7 17:20:13 10° SSE 17:25:12 28° ESE 17:25:53 27° E
ATLAS CENTAUR R/B 3.2 17:23:00 10° W 17:26:37 26° NW 17:29:27 15° NNE
Cosmos 2221 3.7 17:23:05 10° SSW 17:27:08 42° WNW 17:31:14 10° N
Cosmos 468 Rocket 3.9 17:22:07 10° S 17:27:12 66° ESE 17:30:21 24° NNE
Landsat 5 3.8 17:27:18 40° E 17:27:45 42° E 17:31:38 10° S
Cosmos 44 3.9 17:23:42 10° NW 17:28:24 53° WSW 17:32:46 10° SSE
CZ-4 R/B 4.3 17:25:38 10° SSE 17:29:42 64° ENE 17:33:48 10° N
SL-19 R/B 4.5 17:24:03 10° NNE 17:29:59 66° ESE 17:36:23 10° S
COSMO-SKYMED 1 2.5 17:29:13 24° NNE 17:31:42 64° ESE 17:36:00 10° S
Cosmos 2026 Rocket 3.8 17:28:07 10° N 17:34:20 81° E 17:40:26 10° SSE
Cosmos 540 Rocket 3.6 17:31:02 10° S 17:35:54 48° ESE 17:37:03 40° ENE
SL-08 RB Rocket 3.7 17:31:32 10° SSE 17:36:05 56° ENE 17:40:38 10° N
Cosmos 2195 Rocket 4.5 17:30:17 10° N 17:36:27 85° W 17:42:37 10° S
deb Chang Zheng 4 3.5 17:32:10 10° SSE 17:36:28 84° WSW 17:40:50 10° NNW
CZ-2C R/B 2.4 17:32:51 11° NNE 17:37:56 72° ESE 17:43:05 10° S
SJ-11-01 4.2 17:35:15 10° SSE 17:40:00 86° ENE 17:44:47 10° NNW
USA 308 3.5 17:36:13 10° W 17:40:21 46° NNW 17:41:12 40° NNE
Cosmos 1500 3.0 17:36:38 10° N 17:44:46 - SSE 17:40:06 64° NE
Okean O Rocket 1.5 17:36:18 10° SSE 17:40:44 88° E 17:45:14 10° NNW
Helios 1B 4.4 17:40:04 28° NNE 17:42:18 81° ESE 17:46:38 10° SSW
Cosmos 2360 Rocket 4.2 17:39:39 10° N 17:41:20 13° NNE 17:41:20 13° NNE
ISS -3.1 17:42:03 10° WNW 17:44:55 47° NNW 17:44:55 47° NNW
Meteor 2-21 4.3 17:39:43 10° N 17:45:52 89° E 17:51:56 10° S
CZ-4C R/B 3.1 17:40:14 10° NW 17:46:56 51° NE 17:49:48 36° E
YAOGAN 1 3.6 17:50:22 32° N 17:50:22 32° N 17:52:53 10° N
Meteor 1-5 Rocket 4.3 17:49:05 10° N 17:55:02 63° ENE 18:00:56 10° SSE
CZ-4 R/B 3.5 18:00:21 17° N 18:00:21 17° N 18:01:20 10° N
Cosmos 2084 3.9 17:53:54 10° NW 17:58:09 62° SW 17:59:42 37° SSE
Cosmos 2369 3.6 17:53:29 10° NNW 17:59:16 84° ENE 18:02:24 28° SSE
Cosmos 2322 Rocket 3.8 17:55:05 10° N 17:57:35 19° NNE 17:57:35 19° NNE
GEOS 3 Rocket 3.9 17:56:54 17° SSE 18:01:01 66° SW 18:06:13 10° NW
NOAA 15 4.4 17:56:08 10° SSE 18:01:25 74° ENE 18:06:43 10° NNW
Cosmos 1782 2.9 17:58:28 10° SSW 18:02:28 74° W 18:02:36 73° WNW
Cosmos 1697 Rocket 3.2 18:01:52 10° NW 18:07:24 60° WSW 18:12:53 10° S
Cosmos 1937 Rocket 3.8 18:02:22 10° NNW 18:07:40 66° WSW 18:12:55 10° S
Cosmos 1763 Rocket 4.0 18:03:56 10° SW 18:08:54 56° WNW 18:11:17 30° N
NOSS 2-2 (C) 4.1 18:04:25 10° NW 18:09:27 81° NE 18:10:59 54° SE
Cosmos 1980 Rocket 2.0 18:03:48 10° NNW 18:09:31 80° ENE 18:10:40 58° SE
USA 305 3.9 18:05:51 10° WNW 18:09:22 38° NNW 18:09:22 38° NNW
Cosmos 841 Rocket 3.4 18:05:18 10° SSW 18:10:10 70° SE 18:10:10 70° SE
USA 267 3.8 18:08:54 35° NNE 18:11:03 46° N 18:17:12 10° W
Cosmos 1666 Rocket 4.3 18:08:30 10° N 18:11:32 43° NNW 18:11:32 43° NNW
Cosmos 2333 Rocket 4.4 18:10:40 10° N 18:11:35 12° N 18:11:35 12° N
SL-16 R/B 3.6 18:08:48 10° NNW 18:11:40 24° N 18:11:40 24° N
Cosmos 2082 Rocket 2.4 18:13:54 10° SSW 18:18:34 55° SSE 18:18:34 55° SSE
Lacrosse 5 rocket 3.3 18:19:17 10° NW 18:20:53 21° NNW 18:20:53 21° NNW
COSMOS 2406 3.3 18:19:18 10° SSW 18:25:03 77° WNW 18:26:01 61° N
Cosmos 2278 3.7 18:19:35 10° NNW 18:24:47 70° N 18:24:47 70° N
Cosmos 372 Rocket 4.4 18:29:25 10° NNW 18:34:34 60° WSW 18:35:15 55° SW
ATLAS 2AS CENTAUR R/B 4.2 18:32:33 10° NW 18:38:40 25° N 18:39:54 24° NNE
Meteor 2-8 Rocket 4.4 18:32:52 10° S 18:38:41 81° SSW 18:38:41 81° SSW
Cosmos 1833 Rocket 3.7 18:47:29 10° WSW 18:52:46 41° NW 18:53:35 38° NNW
ATLAS CENTAUR R/B 4.5 19:05:19 10° NNW 19:05:34 10° NNW 19:05:34 10° NNW
COSMOS 2455 3.7 19:04:46 10° SW 19:09:04 46° WSW 19:09:04 46° WSW
ATLAS CENTAUR R/B 4.3 19:12:50 10° W 19:16:49 27° WNW 19:16:49 27° WNW
CZ-4C R/B 3.5 19:28:43 10° NW 19:35:02 54° W 19:35:02 54° W
